Time,TemperatureF,DewpointF,PressureIn,WindDirection,WindDirectionDegrees,WindSpeedMPH,WindSpeedGustMPH,Humidity,HourlyPrecipIn,Conditions,Clouds,dailyrainin,SoftwareType,DateUTC
2013-02-21 00:01:00,25.0,15.0,29.91,NW,314,5.0,16.0,67,0.00,,,0.00,weatherlink.com 1.10,2013-02-21 05:01:00,
2013-02-21 00:16:00,24.9,15.0,29.91,NW,307,7.0,12.0,66,0.00,,,0.00,weatherlink.com 1.10,2013-02-21 05:16:00,
2013-02-21 00:32:00,24.9,15.0,29.91,NW,314,9.0,18.0,66,0.00,,,0.00,weatherlink.com 1.10,2013-02-21 05:32:00,
2013-02-21 00:47:00,24.8,15.0,29.92,NNW,346,18.0,20.0,65,0.00,,,0.00,weatherlink.com 1.10,2013-02-21 05:47:00,
2013-02-21 01:02:00,24.6,14.0,29.92,WNW,302,3.0,11.0,64,0.00,,,0.00,weatherlink.com 1.10,2013-02-21 06:02:00,
2013-02-21 01:17:00,24.4,14.0,29.91,WNW,291,5.0,15.0,64,0.00,,,0.00,weatherlink.com 1.10,2013-02-21 06:17:00,
2013-02-21 01:32:00,24.2,13.0,29.91,WNW,295,6.0,12.0,63,0.00,,,0.00,weatherlink.com 1.10,2013-02-21 06:32:00,
2013-02-21 01:47:00,24.2,13.0,29.91,NW,314,5.0,12.0,63,0.00,,,0.00,weatherlink.com 1.10,2013-02-21 06:47:00,
2013-02-21 02:02:00,24.1,13.0,29.91,NW,326,5.0,12.0,63,0.00,,,0.00,weatherlink.com 1.10,2013-02-21 07:02:00,
2013-02-21 02:32:00,24.2,13.0,29.91,NW,314,9.0,19.0,63,0.00,,,0.00,weatherlink.com 1.10,2013-02-21 07:32:00,
2013-02-21 02:47:00,24.0,13.0,29.91,NW,311,2.0,18.0,64,0.00,,,0.00,weatherlink.com 1.10,2013-02-21 07:47:00,
2013-02-21 03:02:00,23.8,13.0,29.91,NW,319,6.0,20.0,64,0.00,,,0.00,weatherlink.com 1.10,2013-02-21 08:02:00,
2013-02-21 03:17:00,23.7,13.0,29.90,NNW,329,3.0,8.0,65,0.00,,,0.00,weatherlink.com 1.10,2013-02-21 08:17:00,
2013-02-21 03:32:00,23.6,13.0,29.90,NW,323,3.0,15.0,65,0.00,,,0.00,weatherlink.com 1.10,2013-02-21 08:32:00,
2013-02-21 03:47:00,23.6,13.0,29.89,NW,323,4.0,15.0,65,0.00,,,0.00,weatherlink.com 1.10,2013-02-21 08:47:00,
2013-02-21 04:02:00,23.4,13.0,29.90,NW,311,6.0,15.0,65,0.00,,,0.00,weatherlink.com 1.10,2013-02-21 09:02:00,
2013-02-21 04:17:00,23.3,13.0,29.89,NW,316,6.0,15.0,66,0.00,,,0.00,weatherlink.com 1.10,2013-02-21 09:17:00,
2013-02-21 04:32:00,23.3,13.0,29.90,NW,309,7.0,13.0,66,0.00,,,0.00,weatherlink.com 1.10,2013-02-21 09:32:00,
2013-02-21 04:47:00,23.4,14.0,29.91,NW,304,8.0,17.0,66,0.00,,,0.00,weatherlink.com 1.10,2013-02-21 09:47:00,
2013-02-21 05:02:00,23.4,14.0,29.90,NW,304,11.0,15.0,66,0.00,,,0.00,weatherlink.com 1.10,2013-02-21 10:02:00,
2013-02-21 05:17:00,23.2,13.0,29.90,NW,316,11.0,26.0,66,0.00,,,0.00,weatherlink.com 1.10,2013-02-21 10:17:00,
2013-02-21 05:32:00,23.0,13.0,29.89,NNW,332,7.0,20.0,66,0.00,,,0.00,weatherlink.com 1.10,2013-02-21 10:32:00,
2013-02-21 05:47:00,23.0,13.0,29.91,NW,305,13.0,26.0,65,0.00,,,0.00,weatherlink.com 1.10,2013-02-21 10:47:00,
2013-02-21 06:02:00,23.1,13.0,29.91,NW,304,6.0,21.0,64,0.00,,,0.00,weatherlink.com 1.10,2013-02-21 11:02:00,
2013-02-21 06:17:00,22.9,13.0,29.91,North,351,8.0,20.0,66,0.00,,,0.00,weatherlink.com 1.10,2013-02-21 11:17:00,
2013-02-21 06:32:00,22.6,14.0,29.91,NW,305,10.0,21.0,69,0.00,,,0.00,weatherlink.com 1.10,2013-02-21 11:32:00,
2013-02-21 06:47:00,22.3,14.0,29.93,NW,304,11.0,16.0,70,0.00,,,0.00,weatherlink.com 1.10,2013-02-21 11:47:00,
2013-02-21 07:02:00,21.9,13.0,29.93,NW,326,6.0,17.0,69,0.00,,,0.00,weatherlink.com 1.10,2013-02-21 12:02:00,
2013-02-21 07:18:00,21.7,13.0,29.93,NW,314,5.0,15.0,68,0.00,,,0.00,weatherlink.com 1.10,2013-02-21 12:18:00,
2013-02-21 07:32:00,21.7,13.0,29.93,NW,326,10.0,17.0,69,0.00,,,0.00,weatherlink.com 1.10,2013-02-21 12:32:00,
2013-02-21 07:47:00,21.4,13.0,29.95,North,349,6.0,13.0,70,0.00,,,0.00,weatherlink.com 1.10,2013-02-21 12:47:00,
2013-02-21 08:03:00,21.1,13.0,29.96,NW,316,3.0,21.0,70,0.00,,,0.00,weatherlink.com 1.10,2013-02-21 13:03:00,
2013-02-21 08:17:00,20.9,13.0,29.97,NNW,345,8.0,16.0,70,0.00,,,0.00,weatherlink.com 1.10,2013-02-21 13:17:00,
2013-02-21 08:32:00,20.9,12.0,29.97,NNW,339,5.0,14.0,69,0.00,,,0.00,weatherlink.com 1.10,2013-02-21 13:32:00,
2013-02-21 08:48:00,21.2,11.0,29.97,ENE,65,8.0,22.0,64,0.00,,,0.00,weatherlink.com 1.10,2013-02-21 13:48:00,
2013-02-21 09:03:00,21.2,11.0,29.97,North,356,8.0,15.0,66,0.00,,,0.00,weatherlink.com 1.10,2013-02-21 14:03:00,
2013-02-21 09:18:00,21.1,11.0,29.99,NNW,328,20.0,27.0,64,0.00,,,0.00,weatherlink.com 1.10,2013-02-21 14:18:00,
2013-02-21 09:34:00,20.7,9.0,29.99,NNW,330,9.0,26.0,62,0.00,,,0.00,weatherlink.com 1.10,2013-02-21 14:34:00,
2013-02-21 09:48:00,21.0,9.0,30.00,NNW,332,2.0,22.0,61,0.00,,,0.00,weatherlink.com 1.10,2013-02-21 14:48:00,
2013-02-21 10:03:00,21.3,10.0,30.01,NW,310,13.0,28.0,62,0.00,,,0.00,weatherlink.com 1.10,2013-02-21 15:03:00,
2013-02-21 10:18:00,23.1,11.0,30.01,NNW,329,8.0,14.0,61,0.00,,,0.00,weatherlink.com 1.10,2013-02-21 15:18:00,
2013-02-21 10:33:00,23.3,12.0,30.02,NNW,344,4.0,15.0,62,0.00,,,0.00,weatherlink.com 1.10,2013-02-21 15:33:00,
2013-02-21 10:48:00,22.2,11.0,30.03,NE,39,2.0,18.0,63,0.00,,,0.00,weatherlink.com 1.10,2013-02-21 15:48:00,
2013-02-21 11:03:00,21.4,11.0,30.05,NW,316,10.0,24.0,63,0.00,,,0.00,weatherlink.com 1.10,2013-02-21 16:03:00,
2013-02-21 11:18:00,20.8,10.0,30.05,WNW,290,12.0,28.0,63,0.00,,,0.00,weatherlink.com 1.10,2013-02-21 16:18:00,
2013-02-21 11:33:00,21.1,10.0,30.05,WNW,302,8.0,27.0,63,0.00,,,0.00,weatherlink.com 1.10,2013-02-21 16:33:00,
2013-02-21 11:48:00,22.2,11.0,30.05,NNW,342,8.0,16.0,62,0.00,,,0.00,weatherlink.com 1.10,2013-02-21 16:48:00,
2013-02-21 12:03:00,21.9,10.0,30.05,NNW,333,11.0,16.0,61,0.00,,,0.00,weatherlink.com 1.10,2013-02-21 17:03:00,
2013-02-21 12:18:00,21.1,10.0,30.06,West,278,8.0,20.0,63,0.00,,,0.00,weatherlink.com 1.10,2013-02-21 17:18:00,
2013-02-21 12:33:00,21.2,10.0,30.05,NW,312,11.0,28.0,63,0.00,,,0.00,weatherlink.com 1.10,2013-02-21 17:33:00,
2013-02-21 12:48:00,21.8,10.0,30.05,NW,318,8.0,20.0,61,0.00,,,0.00,weatherlink.com 1.10,2013-02-21 17:48:00,
2013-02-21 13:03:00,21.9,11.0,30.05,NNW,337,15.0,22.0,62,0.00,,,0.00,weatherlink.com 1.10,2013-02-21 18:03:00,
2013-02-21 13:18:00,21.9,11.0,30.06,NNW,346,15.0,22.0,62,0.00,,,0.00,weatherlink.com 1.10,2013-02-21 18:18:00,
2013-02-21 13:33:00,21.3,10.0,30.06,NW,315,7.0,22.0,63,0.00,,,0.00,weatherlink.com 1.10,2013-02-21 18:33:00,
2013-02-21 13:48:00,21.6,11.0,30.06,North,351,11.0,19.0,63,0.00,,,0.00,weatherlink.com 1.10,2013-02-21 18:48:00,
2013-02-21 14:03:00,21.5,10.0,30.07,NW,323,13.0,23.0,62,0.00,,,0.00,weatherlink.com 1.10,2013-02-21 19:03:00,
2013-02-21 14:18:00,20.8,10.0,30.07,North,349,10.0,28.0,64,0.00,,,0.00,weatherlink.com 1.10,2013-02-21 19:18:00,
2013-02-21 14:33:00,21.7,11.0,30.08,NW,304,14.0,20.0,63,0.00,,,0.00,weatherlink.com 1.10,2013-02-21 19:33:00,
2013-02-21 14:48:00,22.3,11.0,30.09,NNW,329,10.0,18.0,62,0.00,,,0.00,weatherlink.com 1.10,2013-02-21 19:48:00,
2013-02-21 15:03:00,22.5,11.0,30.09,NW,315,8.0,23.0,62,0.00,,,0.00,weatherlink.com 1.10,2013-02-21 20:03:00,
2013-02-21 15:18:00,21.9,11.0,30.10,NW,316,10.0,19.0,63,0.00,,,0.00,weatherlink.com 1.10,2013-02-21 20:18:00,
2013-02-21 15:33:00,21.3,11.0,30.10,WNW,298,8.0,18.0,64,0.00,,,0.00,weatherlink.com 1.10,2013-02-21 20:33:00,
2013-02-21 15:48:00,20.2,11.0,30.12,NW,316,16.0,23.0,67,0.00,,,0.00,weatherlink.com 1.10,2013-02-21 20:48:00,
2013-02-21 16:03:00,19.9,11.0,30.12,NNW,343,12.0,29.0,68,0.00,,,0.00,weatherlink.com 1.10,2013-02-21 21:03:00,
2013-02-21 16:18:00,19.8,11.0,30.14,WNW,300,16.0,28.0,68,0.00,,,0.00,weatherlink.com 1.10,2013-02-21 21:18:00,
2013-02-21 16:33:00,20.0,11.0,30.14,NW,323,13.0,27.0,68,0.00,,,0.00,weatherlink.com 1.10,2013-02-21 21:33:00,
2013-02-21 16:48:00,20.1,11.0,30.15,NNW,329,13.0,26.0,68,0.00,,,0.00,weatherlink.com 1.10,2013-02-21 21:48:00,
2013-02-21 17:04:00,19.6,11.0,30.16,North,349,15.0,26.0,69,0.00,,,0.00,weatherlink.com 1.10,2013-02-21 22:04:00,
2013-02-21 17:19:00,19.4,11.0,30.17,NNW,343,4.0,21.0,70,0.00,,,0.00,weatherlink.com 1.10,2013-02-21 22:19:00,
2013-02-21 17:34:00,19.4,11.0,30.18,NW,315,15.0,21.0,70,0.00,,,0.00,weatherlink.com 1.10,2013-02-21 22:34:00,
2013-02-21 17:49:00,19.2,11.0,30.18,NW,325,7.0,19.0,71,0.00,,,0.00,weatherlink.com 1.10,2013-02-21 22:49:00,
2013-02-21 18:04:00,19.2,11.0,30.19,NW,322,19.0,19.0,71,0.00,,,0.00,weatherlink.com 1.10,2013-02-21 23:04:00,
2013-02-21 18:19:00,19.3,12.0,30.19,NNW,332,16.0,17.0,72,0.00,,,0.00,weatherlink.com 1.10,2013-02-21 23:19:00,
2013-02-21 18:34:00,19.2,12.0,30.20,NW,323,15.0,17.0,72,0.00,,,0.00,weatherlink.com 1.10,2013-02-21 23:34:00,
2013-02-21 18:49:00,19.2,12.0,30.21,NW,325,10.0,16.0,72,0.00,,,0.00,weatherlink.com 1.10,2013-02-21 23:49:00,
2013-02-21 19:04:00,19.6,12.0,30.22,WNW,300,5.0,14.0,72,0.00,,,0.00,weatherlink.com 1.10,2013-02-22 00:04:00,
2013-02-21 19:19:00,19.7,12.0,30.23,NW,307,8.0,15.0,72,0.00,,,0.00,weatherlink.com 1.10,2013-02-22 00:19:00,
2013-02-21 19:34:00,19.4,12.0,30.23,NW,326,6.0,14.0,72,0.00,,,0.00,weatherlink.com 1.10,2013-02-22 00:34:00,
2013-02-21 19:49:00,19.6,12.0,30.25,WNW,283,5.0,16.0,72,0.00,,,0.00,weatherlink.com 1.10,2013-02-22 00:49:00,
2013-02-21 20:04:00,19.5,12.0,30.26,NW,307,6.0,19.0,71,0.00,,,0.00,weatherlink.com 1.10,2013-02-22 01:04:00,
2013-02-21 20:19:00,19.8,12.0,30.28,West,260,7.0,10.0,72,0.00,,,0.00,weatherlink.com 1.10,2013-02-22 01:19:00,
2013-02-21 20:34:00,20.2,12.0,30.28,North,349,8.0,19.0,71,0.00,,,0.00,weatherlink.com 1.10,2013-02-22 01:34:00,
2013-02-21 20:49:00,20.5,13.0,30.29,NNW,330,12.0,15.0,72,0.00,,,0.00,weatherlink.com 1.10,2013-02-22 01:49:00,
2013-02-21 21:04:00,20.9,13.0,30.30,NW,316,5.0,18.0,72,0.00,,,0.00,weatherlink.com 1.10,2013-02-22 02:04:00,
2013-02-21 21:19:00,21.0,13.0,30.31,NNW,336,8.0,17.0,72,0.00,,,0.00,weatherlink.com 1.10,2013-02-22 02:19:00,
2013-02-21 21:34:00,21.1,14.0,30.31,NW,316,9.0,14.0,73,0.00,,,0.00,weatherlink.com 1.10,2013-02-22 02:34:00,
2013-02-21 21:49:00,21.2,14.0,30.32,NW,305,14.0,19.0,73,0.00,,,0.00,weatherlink.com 1.10,2013-02-22 02:49:00,
2013-02-21 22:04:00,21.2,14.0,30.33,NW,314,13.0,20.0,74,0.00,,,0.00,weatherlink.com 1.10,2013-02-22 03:04:00,
2013-02-21 22:19:00,21.5,15.0,30.35,NNW,348,9.0,19.0,75,0.00,,,0.00,weatherlink.com 1.10,2013-02-22 03:19:00,
2013-02-21 22:34:00,21.6,15.0,30.36,NW,305,9.0,12.0,76,0.00,,,0.00,weatherlink.com 1.10,2013-02-22 03:34:00,
2013-02-21 23:04:00,21.8,16.0,30.36,NNW,341,4.0,12.0,77,0.00,,,0.00,weatherlink.com 1.10,2013-02-22 04:04:00,
2013-02-21 23:19:00,21.9,16.0,30.37,NNW,329,7.0,14.0,78,0.00,,,0.00,weatherlink.com 1.10,2013-02-22 04:19:00,
2013-02-21 23:34:00,22.1,17.0,30.37,NNW,327,8.0,16.0,79,0.00,,,0.00,weatherlink.com 1.10,2013-02-22 04:34:00,
2013-02-21 23:49:00,22.3,17.0,30.38,NNW,339,4.0,9.0,79,0.00,,,0.00,weatherlink.com 1.10,2013-02-22 04:49:00,